St. Athan, United Kingdom

1:07 PM BST on June 22, 2017 (GMT +0100)
Saint Athan Air Base

Weather History for EGDX - January, 2013

Change the Weather History Date:

Tuesday, January 1, 2013

  Actual Average (EGFF) Record (EGFF)
Temperature  
Mean Temperature 44 °F -  
Max Temperature 46 °F 44 °F 53 °F (2014)
Min Temperature 41 °F 36 °F 23 °F (1997)
Degree Days  
Heating Degree Days 22    
Moisture  
Dew Point 38 °F    
Average Humidity 79    
Maximum Humidity 87    
Minimum Humidity 64    
Precipitation  
Precipitation 0.00 in - - ()
Sea Level Pressure  
Sea Level Pressure 29.84 in    
Wind  
Wind Speed 12 mph ()    
Max Wind Speed 18 mph    
Max Gust Speed -    
Visibility 8.9 miles    
Events      
Averages and records for this station are not official NWS values.
T = Trace of Precipitation, MM = Missing Value Source: Averaged Metar Reports

Daily Weather History Graph

Daily Weather History Graph

Search for Another Location

Airport or City:

Trip Planner

Search our weather history database for the weather conditions in past years. The results will help you decide how hot, cold, wet, or windy it might be!

Date:

Astronomy

Jan. 01, 2013 Rise Set
Actual Time 8:18 AM GMT 4:16 PM GMT
Civil Twilight 7:39 AM GMT 4:55 PM GMT
Nautical Twilight 6:56 AM GMT 5:38 PM GMT
Astronomical Twilight 6:15 AM GMT 6:19 PM GMT
Moon 9:05 PM GMT (1/1) 9:54 AM GMT (1/1)
Length of Visible Light 9h 16m
Length of Day
7h 57m
Waning Gibbous, 85% of the Moon is Illuminated
Jan 1
Waning Gibbous
Jan 5
Last Quarter
Jan 11
New
Jan 18
First Quarter
Jan 27
Full

Hourly Weather History & Observations

Time (GMT) Temp. Windchill Dew Point Humidity Pressure Visibility Wind Dir Wind Speed Gust Speed Precip Events Conditions
12:50 AM 42.8 °F 36.6 °F 39.2 °F 87% 29.56 in 6.2 mi WNW 11.5 mph - N/A   Partly Cloudy
1:50 AM 42.8 °F 35.4 °F 39.2 °F 87% 29.62 in 6.2 mi WNW 15.0 mph - N/A   Unknown
2:50 AM 42 °F - 38 °F 79% 29.63 in 19 mi WNW 9.2 mph - -  
2:50 AM 42.8 °F 37.5 °F 37.4 °F 81% 29.62 in 6.2 mi WNW 9.2 mph - N/A   Unknown
3:50 AM 42.8 °F 36.2 °F 37.4 °F 81% 29.62 in 6.2 mi WNW 12.7 mph - N/A   Scattered Clouds
4:50 AM 42.8 °F 36.2 °F 37.4 °F 81% 29.65 in 6.2 mi WNW 12.7 mph - N/A   Partly Cloudy
5:50 AM 44 °F - 38 °F 73% 29.67 in 22 mi WNW 13.8 mph - -  
5:50 AM 44.6 °F 38.1 °F 37.4 °F 76% 29.65 in 6.2 mi WNW 13.8 mph - N/A   Partly Cloudy
6:50 AM 42.8 °F 36.2 °F 39.2 °F 87% 29.68 in 6.2 mi WNW 12.7 mph - N/A   Partly Cloudy
7:50 AM 41.0 °F 34.3 °F 37.4 °F 87% 29.71 in 6.2 mi WNW 11.5 mph - N/A   Partly Cloudy
8:50 AM 42 °F - 38 °F 79% 29.76 in 19 mi WNW 12.7 mph - -  
8:50 AM 41.0 °F 33.9 °F 37.4 °F 87% 29.74 in 6.2 mi WNW 12.7 mph - N/A   Unknown
9:50 AM 42.8 °F 36.2 °F 37.4 °F 81% 29.77 in 6.2 mi WNW 12.7 mph - N/A   Unknown
10:50 AM 44.6 °F 38.1 °F 37.4 °F 76% 29.80 in 6.2 mi WNW 13.8 mph - N/A   Partly Cloudy
11:50 AM 44 °F - 38 °F 71% 29.85 in 19 mi WNW 16.1 mph - -  
11:50 AM 44.6 °F 37.4 °F 37.4 °F 76% 29.83 in 6.2 mi WNW 16.1 mph - N/A   Unknown
12:50 PM 44.6 °F 37.8 °F 37.4 °F 76% 29.83 in 6.2 mi WNW 15.0 mph - N/A   Scattered Clouds
1:50 PM 46.4 °F 39.5 °F 37.4 °F 71% 29.86 in 6.2 mi WNW 17.3 mph - N/A   Mostly Cloudy
2:50 PM 45 °F - 37 °F 64% 29.88 in 19 mi WNW 18.4 mph - -  
2:50 PM 44.6 °F 36.9 °F 37.4 °F 76% 29.86 in 6.2 mi WNW 18.4 mph - N/A   Unknown
3:50 PM 44.6 °F 37.8 °F 37.4 °F 76% 29.89 in 6.2 mi WNW 15.0 mph - N/A   Unknown
4:50 PM 44.6 °F 38.1 °F 37.4 °F 76% 29.92 in 6.2 mi WNW 13.8 mph - N/A   Partly Cloudy
5:50 PM 44 °F - 38 °F 72% 29.96 in 17 mi WNW 15.0 mph - -   Scattered Clouds
5:50 PM 44.6 °F 37.8 °F 37.4 °F 76% 29.95 in 6.2 mi WNW 15.0 mph - N/A   Partly Cloudy
6:50 PM 44.6 °F 38.1 °F 39.2 °F 81% 29.98 in 6.2 mi WNW 13.8 mph - N/A   Unknown
7:50 PM 42.8 °F 36.6 °F 39.2 °F 87% 30.01 in 6.2 mi WNW 11.5 mph - N/A   Unknown
8:50 PM 44 °F - 40 °F 79% 30.06 in 16 mi WNW 10.4 mph - -  
8:50 PM 44.6 °F 39.2 °F 39.2 °F 81% 30.04 in 6.2 mi WNW 10.4 mph - N/A   Unknown
9:50 PM 44.6 °F 39.7 °F 39.2 °F 81% 30.06 in 6.2 mi WNW 9.2 mph - N/A   Mostly Cloudy
10:50 PM 44.6 °F 39.2 °F 39.2 °F 81% 30.09 in 6.2 mi WNW 10.4 mph - N/A   Partly Cloudy
11:50 PM 44 °F - 40 °F 80% 30.13 in 17 mi WNW 12.7 mph - -   Scattered Clouds
11:50 PM 44.6 °F 38.4 °F 39.2 °F 81% 30.12 in 6.2 mi WNW 12.7 mph - N/A   Partly Cloudy